N7QNM-13 Weather Reports


Display with metric or nautical units.
time (UTC)temp
F
wind
direction
speed
MPH
gust
MPH
rain 1hr
in
rain 24hr
in
rain mn
in
humidity
%
barometer
mb
20200224205521 48 311 3.0 5.0 0.00 0.55 0.00 40 1028.7
20200224204520 48 274 4.0 6.0 0.00 0.55 0.00 40 1028.5
20200224203521 47 259 2.0 4.0 0.00 0.56 0.00 41 1028.6
20200224202533 47 308 5.0 6.0 0.00 0.69 0.00 41 1028.6
20200224201531 48 275 4.0 5.0 0.00 0.70 0.00 41 1028.8
20200224200528 47 353 2.0 4.0 0.00 0.72 0.00 42 1029.0
20200224195522 46 310 2.0 4.0 0.00 0.72 0.00 43 1028.8
20200224194522 46 257 2.0 4.0 0.00 0.72 0.00 43 1029.2
20200224193521 46 265 2.0 3.0 0.00 0.72 0.00 43 1029.1
20200224192519 47 260 3.0 5.0 0.00 0.72 0.00 42 1029.1
20200224191524 46 281 2.0 4.0 0.00 0.72 0.00 43 1029.1
20200224190533 45 288 2.0 2.0 0.00 0.72 0.00 44 1029.2
20200224185522 45 284 2.0 3.0 0.00 0.76 0.00 45 1029.2
20200224184523 46 288 3.0 4.0 0.00 1.04 0.00 44 1029.1
20200224183522 46 336 3.0 5.0 0.00 1.08 0.00 44 1029.1
20200224182524 46 106 2.0 3.0 0.00 1.14 0.00 44 1029.1
20200224181521 46 125 3.0 4.0 0.00 1.14 0.00 45 1029.0
20200224180519 45 61 1.0 3.0 0.00 1.14 0.00 47 1029.0
20200224175522 41 90 1.0 2.0 0.00 1.14 0.00 61 1029.0
20200224174521 38 79 1.0 2.0 0.00 1.14 0.00 66 1028.9
20200224173518 38 71 1.0 2.0 0.00 1.14 0.00 68 1028.8
20200224172529 37 0.0 0.0 0.00 1.14 0.00 70 1028.6
20200224171526 36 63 2.0 3.0 0.00 1.14 0.00 71 1028.7
20200224170527 35 75 2.0 2.0 0.00 1.14 0.00 72 1028.7
20200224165521 35 256 1.0 2.0 0.00 1.14 0.00 73 1028.6
20200224164520 33 54 2.0 2.0 0.00 1.14 0.00 74 1028.6
20200224163522 32 90 3.0 4.0 0.00 1.14 0.00 75 1028.4
20200224162520 32 0.0 1.0 0.00 1.14 0.00 76 1028.3
20200224161532 31 82 3.0 4.0 0.00 1.14 0.00 77 1028.2
20200224160529 32 116 1.0 2.0 0.00 1.14 0.00 71 1028.0
20200224155522 32 0.0 0.0 0.00 1.14 0.00 71 1027.8
20200224154520 31 189 2.0 4.0 0.00 1.14 0.00 73 1027.7
20200224153522 31 86 3.0 4.0 0.00 1.14 0.00 71 1027.5
20200224152521 32 66 1.0 2.0 0.00 1.14 0.00 68 1027.4
20200224151522 32 225 2.0 3.0 0.00 1.14 0.00 68 1027.3
20200224150519 33 288 1.0 3.0 0.00 1.14 0.00 67 1027.3
20200224145522 34 275 4.0 7.0 0.00 1.14 0.00 64 1027.3
20200224144522 34 259 3.0 5.0 0.00 1.14 0.00 65 1027.3
20200224143522 33 263 3.0 3.0 0.00 1.14 0.00 65 1027.2
20200224142524 33 266 3.0 5.0 0.00 1.14 0.00 66 1027.1
20200224141522 32 266 1.0 3.0 0.00 1.14 0.00 67 1027.1
20200224140519 32 102 2.0 4.0 0.00 1.14 0.00 68 1027.2
20200224135520 34 90 2.0 4.0 0.00 1.14 0.00 64 1027.2
20200224134522 37 54 2.0 4.0 0.00 1.14 0.00 58 1027.0
20200224133521 37 249 7.0 10.0 0.00 1.14 0.00 59 1026.9
20200224132529 37 240 6.0 10.0 0.00 1.14 0.00 58 1026.7
20200224131527 38 237 8.0 12.0 0.00 1.14 0.00 60 1026.7
20200224130524 38 217 9.0 13.0 0.00 1.14 0.00 60 1026.8
20200224125522 38 242 9.0 12.0 0.00 1.14 0.00 60 1026.5
20200224124519 38 199 10.0 15.0 0.00 1.14 0.00 62 1026.3
20200224123521 38 218 11.0 17.0 0.00 1.14 0.00 61 1026.2
20200224122519 38 218 14.0 23.0 0.00 1.14 0.00 61 1026.0
20200224121531 38 216 13.0 19.0 0.00 1.14 0.00 62 1025.9
20200224120531 38 215 14.0 20.0 0.00 1.14 0.00 62 1025.9
20200224115526 38 222 11.0 15.0 0.00 1.14 0.00 63 1025.6
20200224114520 38 198 12.0 18.0 0.00 1.14 0.00 63 1025.6
20200224113519 38 209 11.0 17.0 0.00 1.14 0.00 63 1025.4
20200224112524 38 192 12.0 18.0 0.00 1.14 0.00 63 1025.3
20200224111522 38 212 13.0 18.0 0.00 1.14 0.00 64 1025.4
20200224110520 38 223 11.0 15.0 0.00 1.14 0.00 63 1025.3
20200224105521 38 210 12.0 17.0 0.00 1.14 0.00 63 1025.2
20200224104525 39 206 11.0 17.0 0.00 1.14 0.00 60 1025.1
20200224103521 40 224 12.0 19.0 0.00 1.14 0.00 54 1025.2
20200224102520 39 214 11.0 15.0 0.00 1.14 0.00 58 1025.1
20200224101537 39 204 11.0 15.0 0.00 1.14 0.00 58 1024.9
20200224100525 40 216 11.0 20.0 0.00 1.14 0.00 55 1024.8
20200224095522 41 224 10.0 12.0 0.00 1.14 0.00 51 1024.6
20200224094521 41 249 14.0 22.0 0.00 1.14 0.00 50 1024.5
20200224093523 41 248 13.0 17.0 0.00 1.14 0.00 52 1024.3
20200224092523 42 257 17.0 24.0 0.00 1.14 0.00 51 1024.3
20200224090530 42 254 23.0 28.0 0.00 1.14 0.00 52 1023.7
20200224085521 42 254 22.0 27.0 0.00 1.14 0.00 53 1023.4
20200224084521 42 253 22.0 26.0 0.00 1.14 0.00 53 1023.1
20200224083521 41 252 22.0 27.0 0.02 1.14 0.00 53 1023.0
20200224082522 41 252 21.0 26.0 0.02 1.14 0.00 54 1023.1
20200224081519 41 255 23.0 28.0 0.02 1.14 0.00 54 1022.9
20200224080533 41 251 19.0 23.0 0.02 1.14 0.00 54 1022.8
20200224075519 41 251 22.0 28.0 0.02 1.14 1.14 54 1022.4
20200224074520 42 267 25.0 34.0 0.02 1.14 1.14 54 1022.0
20200224073522 42 268 27.0 34.0 0.00 1.12 1.12 54 1021.7
20200224072526 42 258 23.0 29.0 0.00 1.12 1.12 54 1021.2
20200224071524 41 261 24.0 31.0 0.00 1.12 1.12 54 1021.0
20200224070522 41 265 24.0 29.0 0.00 1.12 1.12 55 1021.3
20200224065521 41 259 18.0 24.0 0.00 1.12 1.12 56 1021.6
20200224064526 41 256 19.0 22.0 0.00 1.12 1.12 57 1021.7
20200224063519 41 263 16.0 21.0 0.00 1.12 1.12 57 1021.7
20200224062536 41 257 19.0 24.0 0.00 1.12 1.12 57 1021.4
20200224061534 41 260 18.0 22.0 0.00 1.12 1.12 57 1021.4
20200224060531 41 259 17.0 20.0 0.00 1.12 1.12 57 1021.3
20200224055521 41 262 17.0 26.0 0.00 1.12 1.12 57 1021.1
20200224054524 42 270 18.0 26.0 0.00 1.12 1.12 56 1020.8
20200224053521 42 270 16.0 19.0 0.00 1.12 1.12 55 1020.7
20200224052520 42 264 16.0 22.0 0.00 1.12 1.12 55 1020.5
20200224051537 42 261 15.0 20.0 0.00 1.12 1.12 55 1020.3
20200224050535 42 270 14.0 21.0 0.00 1.12 1.12 54 1020.6
20200224045521 42 262 13.0 17.0 0.00 1.12 1.12 53 1020.5
20200224044523 43 270 16.0 24.0 0.00 1.12 1.12 52 1020.2
20200224043526 43 268 16.0 23.0 0.00 1.12 1.12 52 1020.0
20200224042524 43 267 17.0 22.0 0.00 1.12 1.12 52 1019.6
20200224041522 43 276 16.0 19.0 0.00 1.12 1.12 52 1019.1
20200224040519 43 265 16.0 19.0 0.00 1.12 1.12 52 1018.7
20200224035521 42 284 11.0 16.0 0.00 1.12 1.12 53 1018.7
20200224034521 42 270 13.0 18.0 0.00 1.12 1.12 53 1018.5
20200224033519 42 270 16.0 20.0 0.00 1.12 1.12 53 1018.5
20200224032526 42 269 16.0 20.0 0.00 1.12 1.12 52 1018.6
20200224031522 42 270 16.0 20.0 0.00 1.12 1.12 52 1018.5
20200224030519 42 268 17.0 23.0 0.00 1.12 1.12 53 1018.4
20200224025521 42 270 17.0 21.0 0.00 1.12 1.12 53 1018.1
20200224024520 43 267 16.0 19.0 0.00 1.12 1.12 52 1018.2
20200224023521 42 270 16.0 20.0 0.00 1.12 1.12 53 1018.1
20200224022527 42 263 11.0 16.0 0.00 1.12 1.12 52 1018.0
20200224021524 43 257 15.0 21.0 0.00 1.12 1.12 51 1017.9
20200224020522 44 258 17.0 25.0 0.00 1.12 1.12 51 1017.7
20200224015520 44 269 21.0 26.0 0.00 1.12 1.12 51 1017.6
20200224014522 44 270 18.0 24.0 0.00 1.12 1.12 53 1017.5
20200224013522 44 263 14.0 18.0 0.00 1.12 1.12 54 1017.7
20200224012521 45 266 12.0 16.0 0.00 1.12 1.12 50 1017.9
20200224011519 47 262 17.0 22.0 0.00 1.12 1.12 46 1017.9
20200224010525 47 270 15.0 20.0 0.00 1.12 1.12 46 1017.7
20200224005521 48 267 17.0 20.0 0.01 1.12 1.12 46 1017.3
20200224004522 48 270 18.0 23.0 0.01 1.12 1.12 45 1016.9
20200224003521 49 260 19.0 25.0 0.01 1.12 1.12 44 1016.9
20200224002526 49 270 20.0 25.0 0.02 1.12 1.12 43 1016.9
20200224001524 49 267 21.0 31.0 0.02 1.12 1.12 43 1016.5
20200224000522 49 265 22.0 31.0 0.03 1.12 1.12 44 1015.8
20200223235520 49 258 19.0 26.0 0.02 1.11 1.11 45 1015.9
20200223234522 49 261 24.0 31.0 0.03 1.11 1.11 44 1015.9
20200223233521 50 262 25.0 34.0 0.11 1.11 1.11 43 1015.8
20200223232519 50 261 24.0 30.0 0.10 1.10 1.10 42 1015.8
20200223231537 50 279 26.0 31.0 0.10 1.10 1.10 42 1015.8
20200223230533 50 270 22.0 27.0 0.09 1.09 1.09 42 1015.4
20200223225521 51 251 24.0 29.0 0.32 1.09 1.09 40 1014.9
20200223224521 51 267 29.0 36.0 0.33 1.08 1.08 39 1014.6
20200223223520 52 270 26.0 30.0 0.29 1.00 1.00 39 1014.1
20200223222523 52 258 24.0 31.0 0.32 1.00 1.00 38 1013.7
20200223221521 52 264 27.0 31.0 0.32 1.00 1.00 38 1013.8
20200223220521 51 268 31.0 37.0 0.33 1.00 1.00 39 1013.8
20200223215522 52 270 28.0 35.0 0.18 0.77 0.77 38 1013.8
20200223214521 52 264 30.0 35.0 0.16 0.75 0.75 40 1013.2
20200223213521 52 274 26.0 33.0 0.13 0.71 0.71 37 1012.7
20200223212523 53 282 25.0 30.0 0.23 0.68 0.68 36 1012.6
20200223211521 52 272 28.0 36.0 0.24 0.68 0.68 36 1012.3
20200223210519 52 270 28.0 37.0 0.25 0.67 0.67 37 1012.2